Wind_Speed
26 21 24 31 35 40 45 48 46 46 47 47 46 46 49 51 53 55 56 54 49 44 41 36 30 30 29 30 28 27 29 27 28 29 29 29 30 31 32 31 32 33 35
23 25 30 33 38 43 45 44 46 46 46 46 47 50 52 54 54 49 45 41 36 30 28 25 26 27 26 25 25 26 26 24 23 23 24 24 25 27 31 31 31 31 32
25 30 32 37 39 40 41 43 45 45 46 47 49 52 52 48 41 39 33 25 24 24 22 24 20 19 18 17 17 17 17 18 19 18 18 19 20 22 22 22 23 24 25
27 30 34 36 38 39 40 42 44 45 46 50 51 49 41 36 36 31 23 21 21 18 15 12 11 11 12 12 13 13 14 14 14 14 14 14 15 16 18 18 20 22 23
26 30 33 35 35 37 40 42 43 46 48 49 45 38 35 36 33 25 24 17 18 19 17 15 14 12 13 12 11 10 10 11 11 11 12 13 15 16 17 19 20 21 24
27 29 32 32 33 37 40 42 45 47 47 41 37 35 35 34 28 25 17 15 17 15 12 12 11 10 10 9 8 9 9 8 8 9 10 11 13 14 15 17 18 20 22
26 29 29 31 35 36 39 41 43 42 37 35 35 38 36 27 22 18 14 13 11 11 12 12 10 7 8 8 6 6 8 9 9 9 10 11 12 12 13 14 15 17 20
27 27 29 32 34 36 38 41 39 36 36 37 37 34 26 18 14 11 10 10 11 13 12 9 7 6 5 7 8 10 12 12 13 13 13 14 14 15 16 17 19 19 19
24 24 27 30 32 35 38 36 34 34 36 33 29 24 16 12 8 5 7 9 11 11 7 6 5 6 7 8 11 12 13 15 16 17 17 17 18 18 19 20 21 23 23
22 23 26 28 30 34 33 31 31 33 31 27 25 18 10 6 4 6 8 8 8 8 8 7 6 7 9 10 12 13 14 15 16 17 17 18 19 20 22 23 24 24 24
21 23 25 27 30 31 29 30 29 30 25 23 19 15 12 11 11 12 11 8 9 9 8 7 7 8 9 11 12 13 14 15 15 17 19 20 20 22 23 23 24 25 25
20 22 24 26 28 28 27 25 26 26 22 19 17 14 13 13 12 12 10 10 10 9 8 8 8 9 11 11 12 13 13 14 15 17 18 19 20 22 22 23 24 23 23
19 21 23 24 26 24 23 23 23 21 21 16 14 12 11 9 7 6 7 8 9 9 9 9 9 10 10 10 12 12 12 14 15 16 18 20 21 22 23 23 22 23 24
18 20 20 22 23 21 21 20 19 18 17 17 15 14 13 10 8 6 6 7 8 8 9 9 9 10 10 11 12 13 14 14 16 17 18 20 21 22 23 24 24 24 25
17 18 18 20 20 18 19 17 16 15 16 14 12 11 9 9 8 8 9 9 9 10 10 11 11 12 13 14 15 15 16 17 18 19 20 21 21 22 23 23 23 23 24
17 17 17 19 17 16 16 16 14 15 14 13 12 11 10 9 9 8 7 8 9 10 12 13 15 16 17 18 19 19 19 20 19 20 20 21 22 23 23 23 23 22 23
15 16 16 17 16 15 15 15 14 15 15 13 12 12 10 9 8 9 10 12 13 14 15 16 17 19 19 20 21 22 22 21 20 19 20 21 21 22 23 24 22 23 23
15 14 15 15 14 13 14 14 14 13 14 14 15 15 15 13 13 13 14 15 16 17 18 19 20 21 21 21 21 21 21 20 18 18 19 20 20 21 23 23 23 23 22
14 14 14 14 14 13 13 14 14 13 14 14 13 13 13 14 15 16 17 17 18 19 20 21 22 23 23 23 23 23 21 19 18 17 18 18 19 21 22 23 23 23 23
14 14 15 15 14 13 13 15 16 15 14 14 15 15 15 14 14 15 17 18 19 20 21 22 23 23 23 24 24 21 20 19 18 16 16 16 18 21 23 23 23 24 24
14 15 15 16 16 15 14 15 16 16 17 16 16 17 17 17 17 17 18 19 20 21 22 23 23 23 23 23 22 21 20 18 16 15 15 16 18 22 23 23 24 25 25
15 15 16 16 16 17 16 16 18 18 18 18 18 18 19 20 20 21 21 22 22 23 23 23 23 23 23 23 22 21 20 17 16 16 15 16 19 22 24 24 24 24 26
15 16 16 16 17 17 18 18 19 19 19 20 20 20 21 21 21 22 21 21 23 24 24 24 23 23 23 21 20 19 17 16 17 18 17 19 22 26 26 25 25 25 25
17 17 16 17 18 18 18 19 19 20 21 22 23 23 23 24 25 25 25 24 24 25 26 24 23 22 21 19 18 17 17 18 18 19 20 21 23 26 25 27 28 27 26
18 17 17 18 19 19 19 20 20 20 21 22 23 24 24 24 25 26 26 25 25 24 24 23 22 21 20 18 18 19 19 20 20 21 22 23 26 27 27 27 28 27 27
19 17 17 17 19 20 20 21 21 21 21 21 22 22 22 22 23 23 24 24 24 23 23 23 22 22 21 20 20 21 22 23 24 25 26 26 27 28 28 28 29 29 28
Wind_Direction
284 284 292 298 305 304 306 306 309 310 309 310 310 310 308 307 306 304 302 301 303 306 303 298 289 284 280 281 280 279 282 279 277 274 272 272 272 271 272 270 269 267 264
300 293 297 302 304 305 307 310 309 308 311 311 312 310 308 307 307 311 310 310 309 312 309 295 292 292 289 285 283 283 283 279 278 275 273 270 268 269 271 274 274 274 272
283 294 300 303 306 307 308 308 310 312 311 311 310 309 310 313 315 315 315 318 313 321 316 307 290 293 293 292 297 297 294 290 284 285 285 283 284 283 281 280 279 278 277
292 300 302 304 305 306 309 312 311 311 312 311 310 310 313 314 317 315 309 321 324 331 333 334 319 320 315 309 301 299 297 300 299 297 295 294 292 291 289 285 285 283 282
298 303 303 303 306 310 312 311 312 313 311 309 309 313 311 313 317 316 309 314 314 315 309 307 311 312 314 315 318 321 317 313 307 306 302 299 296 293 291 291 289 287 288
302 302 303 306 311 313 311 314 313 310 309 311 312 309 310 311 316 314 309 312 312 323 322 312 306 310 316 320 321 320 321 330 332 333 327 319 313 310 306 303 301 299 297
297 300 305 311 313 314 314 312 312 311 313 312 312 310 308 305 309 316 313 313 331 333 321 319 315 317 323 326 347 7 13 5 356 348 342 337 332 329 327 325 321 319 313
296 300 310 314 313 313 314 317 319 320 320 320 319 316 310 299 303 326 325 338 338 329 326 328 337 336 4 21 19 19 19 17 14 10 5 360 357 354 350 344 340 333 326
293 303 312 313 315 319 321 323 326 326 327 329 331 327 316 298 317 341 352 348 344 347 349 10 32 36 32 22 19 18 16 14 11 10 7 4 1 359 355 351 346 342 339
297 312 314 318 321 324 327 331 332 335 339 347 354 354 10 37 33 7 3 22 34 43 52 54 43 33 27 25 22 16 13 11 8 7 6 3 1 359 356 352 349 348 346
308 313 320 321 325 329 334 336 344 346 350 354 358 5 8 8 2 1 14 32 36 43 45 40 35 25 24 23 15 9 9 7 3 4 6 3 359 358 355 352 351 350 348
312 318 321 324 329 336 339 344 353 356 354 356 1 1 357 354 352 345 3 21 26 27 25 20 18 14 13 8 1 360 359 356 356 359 360 359 359 356 354 355 354 351 351
315 318 322 327 335 339 347 354 355 2 9 4 359 357 359 7 27 29 15 4 10 13 13 10 6 1 359 354 353 351 353 355 351 352 353 354 354 353 352 351 351 353 351
314 318 324 331 337 342 351 358 355 4 11 25 34 38 41 43 43 37 30 21 15 8 7 4 357 348 340 339 341 340 341 343 344 345 347 348 346 346 346 348 350 350 349
311 316 327 333 340 344 351 351 356 3 7 13 21 28 28 23 26 25 21 21 17 8 2 355 345 335 331 331 330 330 331 333 337 339 341 343 342 342 343 343 347 348 349
311 318 328 335 339 342 343 344 350 355 354 354 358 3 6 9 8 4 1 352 345 338 333 329 324 321 320 320 319 321 322 324 328 333 336 338 339 340 340 341 342 342 344
309 319 327 331 333 337 338 341 351 352 348 343 335 336 343 339 332 326 322 320 321 323 326 327 327 326 325 323 319 314 313 316 322 327 332 336 337 340 339 340 340 338 339
306 316 326 325 324 327 334 336 339 346 343 344 337 331 329 326 321 321 321 323 327 329 329 329 331 331 330 329 327 323 318 314 316 322 329 333 338 342 343 342 338 336 337
303 313 320 321 319 323 326 328 327 329 334 335 337 337 338 335 328 325 325 327 326 324 322 323 325 327 329 329 327 325 323 318 315 320 326 332 343 345 344 343 341 338 334
300 306 315 319 318 319 323 323 323 326 326 330 332 337 338 337 336 331 328 325 323 322 323 327 328 328 328 327 328 328 325 320 317 320 325 332 341 345 343 344 345 342 338
296 299 308 315 317 317 317 318 319 322 323 325 328 332 335 337 338 336 334 331 329 329 330 330 330 330 331 331 330 327 324 320 317 317 323 331 340 346 343 342 343 342 341
291 293 299 308 313 313 313 314 315 316 317 317 318 320 324 327 328 329 330 331 331 331 331 331 331 331 332 331 330 328 325 322 320 321 325 331 339 346 342 337 338 339 338
290 289 293 299 306 309 310 313 312 311 313 313 313 310 311 312 314 317 319 322 325 327 328 328 329 330 330 330 329 329 329 328 325 323 321 324 330 337 337 333 333 335 333
301 296 294 295 299 303 306 309 313 311 310 309 309 308 308 308 310 311 313 319 322 322 323 324 325 325 326 327 327 328 329 327 325 324 321 320 327 333 333 333 333 335 330
304 300 298 298 300 302 303 304 308 310 310 307 304 305 306 307 309 310 312 316 317 318 318 320 321 321 322 322 322 321 321 321 320 319 318 317 318 323 326 327 328 331 332
310 307 302 302 303 304 302 303 305 305 307 307 305 305 308 308 308 307 310 312 313 316 317 317 317 316 315 314 313 314 315 315 315 316 316 315 316 317 318 320 322 325 326
Height
5848 5848 5847 5845 5841 5839 5834 5828 5821 5815 5810 5804 5798 5792 5786 5779 5774 5768 5761 5755 5748 5744 5739 5736 5735 5734 5732 5730 5729 5728 5727 5725 5724 5723 5723 5722 5722 5722 5721 5720 5720 5719 5718
5843 5843 5840 5838 5835 5831 5825 5819 5814 5808 5802 5796 5789 5783 5776 5769 5762 5756 5749 5743 5738 5735 5731 5728 5728 5727 5725 5723 5721 5719 5718 5717 5716 5715 5715 5715 5715 5714 5713 5711 5710 5709 5709
5839 5837 5835 5832 5828 5823 5818 5812 5806 5800 5794 5788 5781 5774 5765 5759 5753 5747 5742 5737 5733 5729 5726 5723 5722 5720 5718 5716 5715 5713 5712 5711 5711 5710 5709 5708 5707 5706 5706 5704 5703 5702 5701
5834 5831 5829 5825 5821 5816 5811 5805 5800 5793 5786 5779 5772 5764 5758 5752 5747 5741 5737 5732 5729 5726 5723 5720 5719 5717 5715 5714 5712 5711 5709 5708 5706 5705 5704 5703 5702 5700 5699 5698 5696 5695 5693
5828 5826 5823 5820 5814 5809 5804 5799 5792 5785 5779 5771 5764 5757 5751 5746 5740 5735 5732 5729 5726 5723 5720 5719 5718 5716 5714 5712 5710 5709 5707 5705 5704 5702 5701 5699 5698 5697 5695 5693 5691 5689 5686
5822 5820 5818 5813 5808 5804 5798 5792 5785 5779 5771 5764 5756 5750 5744 5738 5734 5730 5728 5725 5723 5720 5718 5716 5716 5714 5713 5711 5709 5707 5705 5704 5702 5700 5698 5697 5695 5693 5691 5688 5686 5683 5680
5818 5816 5812 5807 5802 5798 5792 5786 5779 5771 5764 5756 5748 5740 5735 5731 5729 5726 5724 5722 5720 5718 5716 5715 5713 5712 5711 5709 5708 5706 5704 5702 5700 5699 5697 5695 5693 5690 5687 5684 5681 5678 5674
5814 5810 5806 5801 5797 5792 5785 5778 5771 5763 5755 5746 5738 5732 5727 5725 5724 5724 5722 5720 5718 5716 5714 5713 5711 5710 5710 5708 5707 5705 5703 5701 5699 5697 5695 5693 5690 5687 5683 5680 5676 5673 5670
5809 5805 5801 5797 5792 5786 5779 5772 5764 5756 5747 5739 5733 5727 5723 5722 5722 5722 5721 5719 5717 5714 5713 5712 5711 5710 5709 5708 5706 5705 5703 5701 5698 5696 5693 5690 5687 5684 5681 5677 5673 5669 5664
5803 5799 5795 5791 5786 5781 5773 5766 5759 5751 5743 5736 5731 5726 5723 5723 5722 5722 5720 5718 5717 5715 5714 5713 5712 5711 5709 5708 5707 5705 5702 5700 5698 5695 5692 5689 5686 5682 5678 5673 5669 5665 5661
5797 5793 5790 5786 5782 5775 5769 5762 5756 5748 5741 5737 5733 5729 5727 5725 5723 5721 5719 5718 5717 5716 5716 5715 5713 5711 5710 5708 5706 5704 5702 5700 5697 5694 5690 5687 5683 5679 5675 5671 5666 5661 5657
5791 5788 5785 5782 5777 5771 5766 5759 5753 5747 5742 5738 5734 5730 5728 5726 5723 5721 5720 5719 5718 5717 5716 5715 5713 5712 5710 5708 5706 5704 5702 5699 5696 5692 5689 5686 5682 5678 5674 5669 5664 5660 5655
5787 5784 5782 5778 5773 5768 5763 5757 5752 5748 5743 5737 5734 5731 5729 5727 5725 5724 5723 5721 5719 5718 5717 5715 5713 5712 5710 5709 5706 5704 5701 5698 5695 5691 5688 5684 5680 5676 5671 5667 5663 5658 5653
5783 5781 5778 5773 5769 5765 5760 5756 5753 5748 5744 5739 5735 5732 5730 5729 5728 5726 5724 5722 5721 5719 5718 5716 5714 5712 5710 5708 5705 5702 5699 5696 5693 5689 5685 5681 5677 5673 5669 5664 5659 5654 5649
5779 5776 5773 5770 5766 5762 5758 5755 5751 5747 5744 5740 5738 5735 5733 5731 5729 5727 5725 5723 5721 5720 5718 5716 5714 5712 5709 5706 5703 5700 5697 5694 5690 5686 5683 5679 5674 5670 5666 5661 5657 5651 5647
5775 5772 5769 5766 5763 5760 5757 5753 5750 5747 5744 5742 5739 5736 5733 5731 5729 5727 5725 5724 5722 5720 5718 5715 5713 5710 5707 5704 5701 5698 5695 5691 5687 5683 5679 5675 5671 5667 5662 5658 5653 5648 5644
5772 5769 5765 5762 5759 5757 5755 5752 5748 5746 5743 5742 5739 5737 5734 5731 5729 5727 5725 5723 5720 5718 5716 5713 5710 5707 5704 5700 5697 5693 5690 5686 5683 5679 5676 5672 5668 5663 5658 5654 5650 5645 5640
5768 5765 5762 5759 5757 5755 5752 5749 5747 5745 5743 5741 5738 5735 5733 5730 5728 5725 5723 5721 5718 5716 5713 5710 5707 5703 5699 5696 5692 5689 5685 5681 5678 5675 5671 5668 5664 5660 5655 5650 5646 5641 5637
5764 5761 5758 5756 5754 5751 5749 5748 5746 5744 5741 5739 5737 5734 5731 5728 5725 5723 5721 5718 5716 5713 5710 5707 5703 5700 5696 5692 5688 5684 5680 5677 5674 5671 5668 5664 5660 5656 5652 5647 5643 5638 5633
5760 5758 5755 5753 5750 5748 5746 5744 5743 5741 5739 5737 5735 5732 5729 5725 5723 5720 5717 5715 5712 5709 5706 5702 5699 5695 5692 5688 5684 5680 5676 5673 5670 5667 5664 5660 5657 5653 5649 5644 5639 5634 5630
5756 5753 5752 5749 5747 5745 5743 5741 5739 5737 5735 5733 5731 5729 5726 5723 5720 5717 5715 5712 5709 5705 5702 5699 5695 5691 5688 5684 5680 5676 5673 5670 5667 5664 5661 5657 5654 5650 5646 5641 5637 5632 5627
5751 5749 5747 5746 5743 5741 5740 5738 5736 5734 5731 5729 5727 5725 5723 5720 5718 5715 5712 5709 5705 5701 5698 5694 5691 5687 5683 5680 5676 5673 5670 5667 5664 5661 5658 5654 5651 5647 5643 5638 5634 5629 5623
5745 5744 5742 5741 5739 5737 5736 5734 5732 5730 5727 5725 5723 5721 5719 5717 5715 5712 5709 5706 5702 5698 5694 5690 5687 5683 5679 5676 5672 5669 5666 5664 5661 5658 5654 5651 5648 5643 5639 5634 5629 5625 5620
5743 5741 5739 5737 5735 5733 5731 5729 5728 5726 5722 5720 5718 5716 5714 5712 5709 5706 5704 5701 5697 5693 5690 5687 5683 5680 5676 5672 5669 5666 5663 5660 5657 5654 5651 5647 5643 5639 5634 5630 5625 5621 5616
5737 5735 5734 5733 5732 5730 5727 5724 5722 5720 5718 5715 5713 5711 5709 5706 5704 5700 5697 5694 5692 5689 5686 5682 5679 5676 5672 5669 5666 5662 5659 5656 5653 5650 5646 5642 5638 5634 5630 5625 5620 5616 5611
5732 5731 5729 5728 5727 5725 5722 5719 5717 5715 5712 5710 5707 5705 5703 5700 5697 5694 5691 5688 5686 5684 5681 5677 5674 5671 5668 5665 5662 5658 5655 5651 5648 5644 5640 5636 5632 5628 5624 5619 5615 5610 5605